User: anonymous
Location: Unspecified
(0.0000°N, 0.0000°E)
Time: 18:18:09
(UTC+02:00)
Language:

Cosmos 1626 Rocket - Orbit

View from above orbital plane
View from above orbital plane
View from above satellite
View from above satellite

Ground track
Ground track

The orbit data is extracted from the following two-line orbital elements,

1 15495U 85009B   14107.80686411  .00000555  00000-0  64854-4 0  7469
2 15495 082.5265 190.2612 0020829 179.8748 180.2476 14.83182664578517
Epoch (UTC): 17 April 2014 19:21:53
Eccentricity: 0.0020829
inclination: 82.5265°
perigee height: 605 km
apogee height: 634 km
right ascension of ascending node: 190.2612°
argument of perigee: 179.8748°
revolutions per day: 14.83182664
mean anomaly at epoch: 180.2476°
orbit number at epoch: 57851

The dashed part of the orbit path shows where the satellite is in the earth's shadow,  

DLR